Time,TemperatureF,DewpointF,PressureIn,WindDirection,WindDirectionDegrees,WindSpeedMPH,WindSpeedGustMPH,Humidity,HourlyPrecipIn,Conditions,Clouds,dailyrainin,SoftwareType,DateUTC
2013-12-15 00:06:00,37.5,37.0,29.96,East,94,6.0,21.0,97,0.00,,,0.00,weatherlink.com 1.10,2013-12-15 05:06:00,
2013-12-15 00:13:00,37.7,37.0,29.96,East,89,15.0,17.0,97,0.00,,,0.00,weatherlink.com 1.10,2013-12-15 05:13:00,
2013-12-15 00:28:00,38.3,38.0,29.93,East,98,8.0,23.0,97,0.00,,,0.00,weatherlink.com 1.10,2013-12-15 05:28:00,
2013-12-15 00:43:00,38.5,38.0,29.90,ENE,69,9.0,19.0,97,0.00,,,0.00,weatherlink.com 1.10,2013-12-15 05:43:00,
2013-12-15 01:00:00,38.8,38.0,29.89,ENE,61,10.0,20.0,97,0.02,,,0.02,weatherlink.com 1.10,2013-12-15 06:00:00,
2013-12-15 01:14:00,39.1,38.0,29.87,East,84,16.0,19.0,97,0.05,,,0.05,weatherlink.com 1.10,2013-12-15 06:14:00,
2013-12-15 01:28:00,39.5,39.0,29.84,East,90,14.0,18.0,97,0.09,,,0.09,weatherlink.com 1.10,2013-12-15 06:28:00,
2013-12-15 01:44:00,39.7,39.0,29.82,ENE,69,19.0,20.0,97,0.12,,,0.12,weatherlink.com 1.10,2013-12-15 06:44:00,
2013-12-15 01:59:00,39.3,39.0,29.78,East,88,9.0,17.0,97,0.13,,,0.15,weatherlink.com 1.10,2013-12-15 06:59:00,
2013-12-15 02:13:00,-999.0,-99.9,29.75,North,-999,-999.0,-999.0,-999,0.11,,,0.16,weatherlink.com 1.10,2013-12-15 07:13:00,
2013-12-15 02:28:00,-999.0,-99.9,29.73,North,-999,-999.0,-999.0,-999,0.07,,,0.16,weatherlink.com 1.10,2013-12-15 07:28:00,
2013-12-15 02:43:00,-999.0,-99.9,29.70,North,-999,-999.0,-999.0,-999,0.04,,,0.16,weatherlink.com 1.10,2013-12-15 07:43:00,
2013-12-15 02:58:00,-999.0,-99.9,29.65,North,-999,-999.0,-999.0,-999,0.01,,,0.16,weatherlink.com 1.10,2013-12-15 07:58:00,
2013-12-15 03:13:00,-999.0,-99.9,29.62,North,-999,-999.0,-999.0,-999,0.00,,,0.16,weatherlink.com 1.10,2013-12-15 08:13:00,
2013-12-15 03:28:00,-999.0,-99.9,29.60,North,-999,-999.0,-999.0,-999,0.00,,,0.16,weatherlink.com 1.10,2013-12-15 08:28:00,
2013-12-15 03:43:00,-999.0,-99.9,29.57,North,-999,-999.0,-999.0,-999,0.00,,,0.16,weatherlink.com 1.10,2013-12-15 08:43:00,
2013-12-15 03:58:00,-999.0,-99.9,29.54,North,-999,-999.0,-999.0,-999,0.00,,,0.16,weatherlink.com 1.10,2013-12-15 08:58:00,
2013-12-15 04:14:00,-999.0,-99.9,29.50,North,-999,-999.0,-999.0,-999,0.00,,,0.16,weatherlink.com 1.10,2013-12-15 09:14:00,
2013-12-15 04:29:00,-999.0,-99.9,29.47,North,-999,-999.0,-999.0,-999,0.00,,,0.16,weatherlink.com 1.10,2013-12-15 09:29:00,
2013-12-15 04:44:00,-999.0,-99.9,29.46,North,-999,-999.0,-999.0,-999,0.00,,,0.16,weatherlink.com 1.10,2013-12-15 09:44:00,
2013-12-15 04:59:00,-999.0,-99.9,29.46,North,-999,-999.0,-999.0,-999,0.00,,,0.16,weatherlink.com 1.10,2013-12-15 09:59:00,
2013-12-15 05:14:00,-999.0,-99.9,29.46,North,-999,-999.0,-999.0,-999,0.00,,,0.16,weatherlink.com 1.10,2013-12-15 10:14:00,
2013-12-15 05:44:00,-999.0,-99.9,29.44,North,-999,-999.0,-999.0,-999,0.00,,,0.16,weatherlink.com 1.10,2013-12-15 10:44:00,
2013-12-15 06:00:00,-999.0,-99.9,29.42,North,-999,-999.0,-999.0,-999,0.00,,,0.16,weatherlink.com 1.10,2013-12-15 11:00:00,
2013-12-15 06:14:00,-999.0,-99.9,29.42,North,-999,-999.0,-999.0,-999,0.00,,,0.16,weatherlink.com 1.10,2013-12-15 11:14:00,
2013-12-15 06:29:00,-999.0,-99.9,29.41,North,-999,-999.0,-999.0,-999,0.00,,,0.16,weatherlink.com 1.10,2013-12-15 11:29:00,
2013-12-15 06:44:00,-999.0,-99.9,29.41,North,-999,-999.0,-999.0,-999,0.00,,,0.16,weatherlink.com 1.10,2013-12-15 11:44:00,
2013-12-15 06:59:00,-999.0,-99.9,29.40,North,-999,-999.0,-999.0,-999,0.00,,,0.16,weatherlink.com 1.10,2013-12-15 11:59:00,
2013-12-15 07:14:00,-999.0,-99.9,29.38,North,-999,-999.0,-999.0,-999,0.00,,,0.16,weatherlink.com 1.10,2013-12-15 12:14:00,
2013-12-15 07:30:00,-999.0,-99.9,29.38,North,-999,-999.0,-999.0,-999,0.00,,,0.16,weatherlink.com 1.10,2013-12-15 12:30:00,
2013-12-15 07:45:00,-999.0,-99.9,29.38,North,-999,-999.0,-999.0,-999,0.00,,,0.16,weatherlink.com 1.10,2013-12-15 12:45:00,
2013-12-15 08:00:00,-999.0,-99.9,29.41,North,-999,-999.0,-999.0,-999,0.00,,,0.16,weatherlink.com 1.10,2013-12-15 13:00:00,
2013-12-15 08:15:00,-999.0,-99.9,29.40,North,-999,-999.0,-999.0,-999,0.00,,,0.16,weatherlink.com 1.10,2013-12-15 13:15:00,
2013-12-15 08:30:00,-999.0,-99.9,29.41,North,-999,-999.0,-999.0,-999,0.00,,,0.16,weatherlink.com 1.10,2013-12-15 13:30:00,
2013-12-15 08:45:00,-999.0,-99.9,29.41,North,-999,-999.0,-999.0,-999,0.00,,,0.16,weatherlink.com 1.10,2013-12-15 13:45:00,
2013-12-15 09:00:00,-999.0,-99.9,29.42,North,-999,-999.0,-999.0,-999,0.00,,,0.16,weatherlink.com 1.10,2013-12-15 14:00:00,
2013-12-15 09:15:00,-999.0,-99.9,29.45,North,-999,-999.0,-999.0,-999,0.00,,,0.16,weatherlink.com 1.10,2013-12-15 14:15:00,
2013-12-15 09:30:00,-999.0,-99.9,29.45,North,-999,-999.0,-999.0,-999,0.00,,,0.16,weatherlink.com 1.10,2013-12-15 14:30:00,
2013-12-15 09:45:00,-999.0,-99.9,29.45,North,-999,-999.0,-999.0,-999,0.00,,,0.16,weatherlink.com 1.10,2013-12-15 14:45:00,
2013-12-15 10:00:00,-999.0,-99.9,29.45,North,-999,-999.0,-999.0,-999,0.00,,,0.16,weatherlink.com 1.10,2013-12-15 15:00:00,
2013-12-15 10:15:00,-999.0,-99.9,29.46,North,-999,-999.0,-999.0,-999,0.00,,,0.16,weatherlink.com 1.10,2013-12-15 15:15:00,
2013-12-15 10:30:00,-999.0,-99.9,29.45,North,-999,-999.0,-999.0,-999,0.00,,,0.16,weatherlink.com 1.10,2013-12-15 15:30:00,
2013-12-15 10:45:00,-999.0,-99.9,29.45,North,-999,-999.0,-999.0,-999,0.00,,,0.16,weatherlink.com 1.10,2013-12-15 15:45:00,
2013-12-15 11:00:00,-999.0,-99.9,29.45,North,-999,-999.0,-999.0,-999,0.00,,,0.16,weatherlink.com 1.10,2013-12-15 16:00:00,
2013-12-15 11:15:00,-999.0,-99.9,29.46,North,-999,-999.0,-999.0,-999,0.00,,,0.16,weatherlink.com 1.10,2013-12-15 16:15:00,
2013-12-15 11:30:00,-999.0,-99.9,29.46,North,-999,-999.0,-999.0,-999,0.00,,,0.16,weatherlink.com 1.10,2013-12-15 16:30:00,
2013-12-15 11:45:00,-999.0,-99.9,29.46,North,-999,-999.0,-999.0,-999,0.00,,,0.16,weatherlink.com 1.10,2013-12-15 16:45:00,
2013-12-15 12:00:00,-999.0,-99.9,29.46,North,-999,-999.0,-999.0,-999,0.00,,,0.16,weatherlink.com 1.10,2013-12-15 17:00:00,
2013-12-15 12:15:00,-999.0,-99.9,29.46,North,-999,-999.0,-999.0,-999,0.00,,,0.16,weatherlink.com 1.10,2013-12-15 17:15:00,
2013-12-15 12:30:00,34.8,34.0,29.48,SW,232,7.0,11.0,96,0.00,,,0.16,weatherlink.com 1.10,2013-12-15 17:30:00,
2013-12-15 12:45:00,34.2,33.0,29.48,WSW,246,10.0,12.0,95,0.00,,,0.16,weatherlink.com 1.10,2013-12-15 17:45:00,
2013-12-15 13:00:00,33.3,32.0,29.49,WSW,245,1.0,10.0,94,0.00,,,0.16,weatherlink.com 1.10,2013-12-15 18:00:00,
2013-12-15 13:15:00,32.6,31.0,29.50,West,260,7.0,10.0,94,0.00,,,0.16,weatherlink.com 1.10,2013-12-15 18:15:00,
2013-12-15 13:30:00,32.4,31.0,29.51,WSW,256,4.0,14.0,93,0.00,,,0.16,weatherlink.com 1.10,2013-12-15 18:30:00,
2013-12-15 13:45:00,32.6,31.0,29.52,West,267,8.0,17.0,92,0.00,,,0.16,weatherlink.com 1.10,2013-12-15 18:45:00,
2013-12-15 14:00:00,33.0,31.0,29.53,West,269,8.0,13.0,91,0.00,,,0.16,weatherlink.com 1.10,2013-12-15 19:00:00,
2013-12-15 14:15:00,33.5,31.0,29.54,WSW,255,4.0,10.0,90,0.00,,,0.16,weatherlink.com 1.10,2013-12-15 19:15:00,
2013-12-15 14:30:00,33.9,31.0,29.55,WNW,285,8.0,12.0,89,0.00,,,0.16,weatherlink.com 1.10,2013-12-15 19:30:00,
2013-12-15 14:45:00,34.8,32.0,29.56,SW,236,7.0,14.0,88,0.00,,,0.16,weatherlink.com 1.10,2013-12-15 19:45:00,
2013-12-15 15:00:00,34.5,31.0,29.58,West,264,7.0,11.0,88,0.00,,,0.16,weatherlink.com 1.10,2013-12-15 20:00:00,
2013-12-15 15:15:00,34.4,32.0,29.59,WSW,239,8.0,10.0,89,0.00,,,0.16,weatherlink.com 1.10,2013-12-15 20:15:00,
2013-12-15 15:30:00,34.3,31.0,29.60,West,260,2.0,7.0,89,0.00,,,0.16,weatherlink.com 1.10,2013-12-15 20:30:00,
2013-12-15 15:45:00,34.3,31.0,29.61,West,276,6.0,7.0,89,0.00,,,0.16,weatherlink.com 1.10,2013-12-15 20:45:00,
2013-12-15 16:00:00,34.4,32.0,29.61,WSW,255,4.0,8.0,89,0.00,,,0.16,weatherlink.com 1.10,2013-12-15 21:00:00,
2013-12-15 16:16:00,34.7,32.0,29.63,West,260,5.0,10.0,89,0.00,,,0.16,weatherlink.com 1.10,2013-12-15 21:16:00,
2013-12-15 16:31:00,35.1,32.0,29.63,West,259,7.0,16.0,88,0.00,,,0.16,weatherlink.com 1.10,2013-12-15 21:31:00,
2013-12-15 16:46:00,35.4,32.0,29.65,WNW,293,3.0,12.0,87,0.00,,,0.16,weatherlink.com 1.10,2013-12-15 21:46:00,
2013-12-15 17:01:00,35.2,31.0,29.65,West,267,5.0,11.0,86,0.00,,,0.16,weatherlink.com 1.10,2013-12-15 22:01:00,
2013-12-15 17:16:00,34.9,31.0,29.66,WSW,245,4.0,12.0,85,0.00,,,0.16,weatherlink.com 1.10,2013-12-15 22:16:00,
2013-12-15 17:31:00,34.9,31.0,29.67,WSW,257,4.0,12.0,85,0.00,,,0.16,weatherlink.com 1.10,2013-12-15 22:31:00,
2013-12-15 17:46:00,34.7,30.0,29.68,WSW,251,4.0,9.0,84,0.00,,,0.16,weatherlink.com 1.10,2013-12-15 22:46:00,
2013-12-15 18:01:00,34.7,30.0,29.69,West,262,5.0,10.0,84,0.00,,,0.16,weatherlink.com 1.10,2013-12-15 23:01:00,
2013-12-15 18:16:00,34.6,30.0,29.70,WSW,245,7.0,9.0,84,0.00,,,0.16,weatherlink.com 1.10,2013-12-15 23:16:00,
2013-12-15 18:31:00,34.7,30.0,29.70,WSW,249,6.0,12.0,83,0.00,,,0.16,weatherlink.com 1.10,2013-12-15 23:31:00,
2013-12-15 18:46:00,34.8,30.0,29.71,West,259,8.0,13.0,82,0.00,,,0.16,weatherlink.com 1.10,2013-12-15 23:46:00,
2013-12-15 19:01:00,34.8,30.0,29.71,West,262,3.0,12.0,81,0.00,,,0.16,weatherlink.com 1.10,2013-12-16 00:01:00,
2013-12-15 19:16:00,34.9,30.0,29.72,WSW,246,4.0,7.0,81,0.00,,,0.16,weatherlink.com 1.10,2013-12-16 00:16:00,
2013-12-15 19:31:00,34.8,30.0,29.73,WSW,242,3.0,14.0,81,0.00,,,0.16,weatherlink.com 1.10,2013-12-16 00:31:00,
2013-12-15 19:46:00,34.5,29.0,29.74,SW,235,7.0,7.0,81,0.00,,,0.16,weatherlink.com 1.10,2013-12-16 00:46:00,
2013-12-15 20:01:00,34.2,29.0,29.75,SW,225,2.0,8.0,82,0.00,,,0.16,weatherlink.com 1.10,2013-12-16 01:01:00,
2013-12-15 20:16:00,34.4,30.0,29.75,WSW,252,3.0,11.0,84,0.00,,,0.16,weatherlink.com 1.10,2013-12-16 01:16:00,
2013-12-15 20:31:00,34.4,30.0,29.75,SW,221,3.0,10.0,84,0.00,,,0.16,weatherlink.com 1.10,2013-12-16 01:31:00,
2013-12-15 20:46:00,34.4,30.0,29.76,WSW,249,4.0,10.0,83,0.00,,,0.16,weatherlink.com 1.10,2013-12-16 01:46:00,
2013-12-15 21:01:00,34.7,29.0,29.76,WSW,249,6.0,11.0,79,0.00,,,0.16,weatherlink.com 1.10,2013-12-16 02:01:00,
2013-12-15 21:16:00,34.6,28.0,29.77,West,264,5.0,16.0,76,0.00,,,0.16,weatherlink.com 1.10,2013-12-16 02:16:00,
2013-12-15 21:31:00,34.5,28.0,29.77,SW,233,7.0,10.0,76,0.00,,,0.16,weatherlink.com 1.10,2013-12-16 02:31:00,
2013-12-15 21:46:00,34.3,28.0,29.77,WSW,242,4.0,12.0,77,0.00,,,0.16,weatherlink.com 1.10,2013-12-16 02:46:00,
2013-12-15 22:01:00,34.5,27.0,29.78,WSW,253,3.0,12.0,75,0.00,,,0.16,weatherlink.com 1.10,2013-12-16 03:01:00,
2013-12-15 22:16:00,34.4,26.0,29.77,West,273,8.0,12.0,71,0.00,,,0.16,weatherlink.com 1.10,2013-12-16 03:16:00,
2013-12-15 22:31:00,34.3,26.0,29.77,West,260,8.0,13.0,71,0.00,,,0.16,weatherlink.com 1.10,2013-12-16 03:31:00,
2013-12-15 22:46:00,34.4,25.0,29.78,West,262,5.0,11.0,69,0.00,,,0.16,weatherlink.com 1.10,2013-12-16 03:46:00,
2013-12-15 23:01:00,34.3,25.0,29.78,WSW,257,6.0,13.0,69,0.00,,,0.16,weatherlink.com 1.10,2013-12-16 04:01:00,
2013-12-15 23:16:00,34.6,25.0,29.78,WSW,243,6.0,13.0,69,0.00,,,0.16,weatherlink.com 1.10,2013-12-16 04:16:00,
2013-12-15 23:31:00,34.5,26.0,29.78,WSW,245,3.0,14.0,71,0.00,,,0.16,weatherlink.com 1.10,2013-12-16 04:31:00,
2013-12-15 23:46:00,34.5,26.0,29.78,WSW,252,4.0,10.0,72,0.00,,,0.16,weatherlink.com 1.10,2013-12-16 04:46:00,